This is the latest recevied weather packets stored in our database for station/object K5SVV. If no packets are shown the sender has not sent any weather packets the latest 10 day(s).
| Time | Temp. | Humidity | Pressure | Rain* | Wind** | Luminosity | Snow |
|---|---|---|---|---|---|---|---|
| 1777468510 | 16.67° C | 82% | 1013.5 hPa | 0 mm | - | 23 W/m² | - |
| 1777468207 | 16.67° C | 82% | 1013.5 hPa | 0 mm | - | 23 W/m² | - |
| 1777467903 | 16.67° C | 83% | 1013.7 hPa | 0 mm | - | 19 W/m² | - |
| 1777467599 | 17.22° C | 84% | 1013.3 hPa | 0 mm | - | 10 W/m² | - |
| 1777467294 | 17.22° C | 86% | 1013.5 hPa | 0 mm | - | 11 W/m² | - |
| 1777466990 | 17.22° C | 86% | 1013.1 hPa | 0 mm | - | 20 W/m² | - |
| 1777466688 | 17.22° C | 87% | 1013.3 hPa | 0 mm | - | 23 W/m² | - |
| 1777466385 | 17.22° C | 87% | 1013.4 hPa | 0 mm | - | 16 W/m² | - |
| 1777466081 | 17.22° C | 87% | 1013.4 hPa | 0 mm | - | 16 W/m² | - |
| 1777465778 | 17.22° C | 88% | 1013.2 hPa | 0 mm | - | 10 W/m² | - |
| 1777465473 | 17.22° C | 88% | 1013.3 hPa | 0 mm | - | 4 W/m² | - |
| 1777465172 | 17.22° C | 89% | 1013.3 hPa | 0 mm | - | 4 W/m² | - |
| 1777464867 | 17.78° C | 89% | 1013 hPa | 0 mm | - | 3 W/m² | - |
| 1777464563 | 17.78° C | 89% | 1012.7 hPa | 0 mm | - | 2 W/m² | - |
| 1777464260 | 17.78° C | 89% | 1012.7 hPa | 0 mm | - | 2 W/m² | - |
| 1777463955 | 17.78° C | 89% | 1012.6 hPa | 0 mm | - | 0 W/m² | - |
| 1777463650 | 18.33° C | 89% | 1012.6 hPa | 0 mm | - | 0 W/m² | - |
| 1777463345 | 18.33° C | 89% | 1012.3 hPa | 0 mm | - | 0 W/m² | - |
| 1777463042 | 18.33° C | 88% | 1012.4 hPa | 0 mm | - | 0 W/m² | - |
| 1777462737 | 18.33° C | 88% | 1012.6 hPa | 0 mm | - | 0 W/m² | - |
| 1777462432 | 18.33° C | 88% | 1012.3 hPa | 0 mm | - | 0 W/m² | - |
| 1777462129 | 18.33° C | 88% | 1012.4 hPa | 0 mm | - | 0 W/m² | - |
| 1777461826 | 18.33° C | 88% | 1012.5 hPa | 0 mm | - | 0 W/m² | - |
| 1777461522 | 18.33° C | 88% | 1012.2 hPa | 0 mm | - | 0 W/m² | - |
| 1777461219 | 18.33° C | 88% | 1012 hPa | 0 mm | - | 0 W/m² | - |
* Rain latest hour (hover to see other rain measurements)
** Current wind speed in m/s (hover to see current wind gust speed)